Regional Weather Roundup
Issued by NWS

Home | Current Version | Previous Version | Graphics & Text | Print | Product List | Glossary On
Versions: 1 2 3 4 5 6 7 8 9 10 11 12 13 14 15 16 17 18 19 20 21 22 23 24 25 26 27 28 29 30 31 32 33 34 35 36 37 38 39 40 41 42 43 44 45 46 47 48 49 50
000
ASUS45 KTFX 011910
RWRMT
MONTANA REGIONAL WEATHER ROUNDUP
NATIONAL WEATHER SERVICE GREAT FALLS MT
100 PM MDT WED JUL 01 2015

NOTE: "FAIR" INDICATES FEW OR NO CLOUDS BELOW 12000 FEET WITH NO
SIGNIFICANT WEATHER AND/OR OBSTRUCTIONS TO VISIBILITY.

MTZ001>007-043-012000-
WEST OF THE DIVIDE

CITY           SKY/WX    TMP DP  RH WIND       PRES   REMARKS
KALISPELL      PTCLDY    86  48  26 VRB5      30.02F
MISSOULA       SUNNY     90  40  17 NW12G18   30.05F
BUTTE          SUNNY     81  39  22 NW8       30.18F
MULLAN PASS    SUNNY     74  43  32 VRB6      30.25R
DEER LODGE       N/A     82  43  24 W6        30.17S
EUREKA           N/A     81  54  39 NW6       30.05F
HAMILTON         N/A     86  45  23 E6        30.07F
PLAINS           N/A     91  49  23 CALM      30.01S
RONAN            N/A     87  49  26 N2        30.09S
THOMPSON FALLS   N/A     92  44  18 W7        30.03F
$$

MTZ008-052>055-012000-
SOUTHWEST MONTANA

CITY           SKY/WX    TMP DP  RH WIND       PRES   REMARKS
BOZEMAN        SUNNY     82  49  31 S9        30.10F
DILLON         SUNNY     83  48  29 W3        30.13F
W YELLOWSTONE  SUNNY     81  37  21 W9G23     30.24S
THREE FORKS      N/A     86  46  24 SE5       30.07F
$$

MTZ009-010-012-014-046-048-049-054-012000-
EAST SLOPES AND CENTRAL MONTANA

CITY           SKY/WX    TMP DP  RH WIND       PRES   REMARKS
CUT BANK       PTSUNNY   72  58  61 N20       30.12R HAZE
GREAT FALLS    PTSUNNY   82  49  31 N12       30.04S
MALMSTROM AFB  PTSUNNY   83  48  29 W7G16     30.04F
HELENA         SUNNY     90  37  15 W12G24    30.04F
CONRAD           N/A     79  63  57 NW12      30.10R
$$

MTZ011-013-016-021-045-047-050-051-012000-
NORTH CENTRAL MONTANA

CITY           SKY/WX    TMP DP  RH WIND       PRES   REMARKS
HAVRE          LGT RAIN  71  59  65 NE6       30.05S
LEWISTOWN      SUNNY     84  53  34 MISG      30.07F
CHINOOK          N/A     66  59  77 NW6       30.06R
FORT BENTON      N/A     84  54  34 NW5       30.03S
$$

MTZ017>020-022>027-061-062-012000-
NORTHEAST MONTANA

CITY           SKY/WX    TMP DP  RH WIND       PRES   REMARKS
GLASGOW        SUNNY     78  60  53 VRB6      29.99F
JORDAN           N/A     82  59  45 N10       30.00S
SIDNEY         MOSUNNY   73  61  64 N7        30.00S
WOLF POINT     SUNNY     79  60  52 CALM      29.99S HAZE
MALTA            N/A     80  57  45 N1        29.96F
PLENTYWOOD       N/A     73  61  64 SW5       30.00S
POPLAR           N/A     79  63  57 S5        29.99S
SCOBEY           N/A     75  53  46 NW6       30.00S
$$

MTZ028>42-056>058-012000-
SOUTHCENTRAL AND SOUTHEAST MONTANA

CITY           SKY/WX    TMP DP  RH WIND       PRES   REMARKS
BAKER          CLOUDY    72  62  71 E8        30.03S
BILLINGS       MOSUNNY   87  49  26 VRB3      30.03F
LIVINGSTON     MOSUNNY   88  48  25 NW10      30.08F
MILES CITY     MOSUNNY   83  61  47 W6        29.99S
EKALAKA          N/A     75  61  62 NW8       30.02S
FORSYTH          N/A     84  55  37 W5        29.98F
LAUREL           N/A     86  50  28 N3        30.02F
ROUNDUP          N/A     86  49  27 N3        29.95F
$$

REGIONAL REPORTS...DAKOTAS

CITY           SKY/WX    TMP DP  RH WIND       PRES   REMARKS
WILLISTON      PTSUNNY   75  58  55 N9        29.99S
MINOT          CLOUDY    70  61  73 CALM      29.96S
DICKINSON      CLOUDY    69  60  73 CALM      30.00S
BEACH          LGT RAIN  70  66  88 NE3       30.03R
CROSBY         MOCLDY    68  68 100 W3        30.00S FOG
BISMARCK       MOSUNNY   76  61  59 CALM      29.96S
GRAND FORKS    MOSUNNY   77  58  51 CALM      29.93F
FARGO          PTSUNNY   75  61  61 S8        29.96S
BUFFALO SD       N/A     75  62  64 W7        29.96S
RAPID CITY     SUNNY     82  60  47 N20G28    30.00R HAZE
$$

REGIONAL REPORTS...WYOMING/IDAHO/WASHINGTON

CITY           SKY/WX    TMP DP  RH WIND       PRES   REMARKS
GILLETTE       SUNNY     83  53  35 VRB6      30.08F
SHERIDAN       SUNNY     86  48  26 CALM      30.06F
BUFFALO WY     MOSUNNY   83  50  31 E6        30.13F
CODY           SUNNY     82  50  32 N8        30.11F
YELLOWSTONE LA   N/A     73  51  46 VRB5      30.34F
IDAHO FALLS    MOSUNNY   86  56  35 S9        30.13S
SALMON         SUNNY     84  52  32 N5        30.04F
BOISE          SUNNY     94  51  23 NW13      30.01F HX  91
SPOKANE        MOSUNNY   88  48  25 VRB3      30.02F
$$

REGIONAL REPORTS...ALBERTA

CITY           SKY/WX    TMP DP  RH WIND       PRES   REMARKS
EDMONTON       SUNNY     70  55  60 NW13      30.04S
CALGARY        PTSUNNY   70  54  56 NW20      30.15S
LETHBRIDGE     PTSUNNY   72  54  53 NW14G22   30.12R
MEDICINE HAT   PTSUNNY   79  57  47 W10G18    30.03F
WATERTON GATE    N/A     64  54  68 NE2         N/A
CARDSTON         N/A     66  59  77 N8          N/A
MILK RIVER       N/A     72  55  56 N14         N/A
ONEFOUR          N/A     73  59  60 NW16        N/A
$$

REGIONAL REPORTS...SASKATCHEWAN

CITY           SKY/WX    TMP DP  RH WIND       PRES   REMARKS
SWIFT CURRENT  MOSUNNY   75  57  53 W10       30.01S
REGINA         CLOUDY    68  59  73 W6        29.98F SMOKE
SASKATOON      PTSUNNY   72  63  73 W9        29.98R
CYPRESS HILLS    N/A     72  55  56 N7          N/A
VAL MARIE        N/A     79  55  44 NW3         N/A
ASSINIBOIA       N/A     68  63  83 NW13        N/A
$$


USA.gov is the U.S. government's official web portal to all federal, state and local government web resources and services.